H1 CPF 2 NER 2021 1 15 9 015 01 glonass131 H2 1301901 9131 39155 2021 1 15 0 0 0 2021 1 18 23 45 0 900 1 1 0 0 0 1 H9 10 0 59229 0.00000 0 21799198.795 3814431.872 -12705484.185 10 0 59229 900.00000 0 23134741.704 4253599.749 -9909293.648 10 0 59229 1800.00000 0 24163977.124 4473072.783 -6920967.518 10 0 59229 2700.00000 0 24845391.896 4512582.128 -3798532.992 10 0 59229 3600.00000 0 25148439.555 4419311.983 -602535.479 10 0 59229 4500.00000 0 25054813.808 4245655.571 2605130.838 10 0 59229 5400.00000 0 24559229.522 4046760.609 5762412.813 10 0 59229 6300.00000 0 23669680.081 3877967.915 8808286.193 10 0 59229 7200.00000 0 22407161.830 3792250.669 11683919.425 10 0 59229 8100.00000 0 20804878.092 3837761.318 14333792.266 10 0 59229 9000.00000 0 18906956.299 4055588.211 16706749.214 10 0 59229 9900.00000 0 16766731.469 4477815.093 18756969.018 10 0 59229 10800.00000 0 14444666.492 5125964.011 20444833.400 10 0 59229 11700.00000 0 12005994.174 6009886.421 21737679.864 10 0 59229 12600.00000 0 9518177.012 7127149.088 22610425.412 10 0 59229 13500.00000 0 7048287.851 8462941.279 23046050.172 10 0 59229 14400.00000 0 4660417.744 9990508.811 23035932.064 10 0 59229 15300.00000 0 2413216.424 11672099.033 22580025.874 10 0 59229 16200.00000 0 357665.659 13460380.107 21686882.567 10 0 59229 17100.00000 0 -1464823.339 15300278.449 20373507.031 10 0 59229 18000.00000 0 -3023909.898 17131160.592 18665055.150 10 0 59229 18900.00000 0 -4301358.773 18889271.105 16594373.821 10 0 59229 19800.00000 0 -5291566.207 20510326.778 14201390.365 10 0 59229 20700.00000 0 -6001554.017 21932159.781 11532360.862 10 0 59229 21600.00000 0 -6450430.758 23097299.421 8638989.879 10 0 59229 22500.00000 0 -6668341.343 23955383.564 5577437.066 10 0 59229 23400.00000 0 -6694948.349 24465296.867 2407229.011 10 0 59229 24300.00000 0 -6577508.625 24596943.718 -809902.721 10 0 59229 25200.00000 0 -6368626.679 24332578.580 -4011234.275 10 0 59229 26100.00000 0 -6123780.792 23667634.962 -7134288.001 10 0 59229 27000.00000 0 -5898728.301 22611015.540 -10118070.911 10 0 59229 27900.00000 0 -5746902.182 21184829.121 -12904286.850 10 0 59229 28800.00000 0 -5716911.888 19423584.197 -15438496.396 10 0 59229 29700.00000 0 -5850257.043 17372872.419 -17671199.690 10 0 59229 30600.00000 0 -6179353.449 15087597.545 -19558819.198 10 0 59229 31500.00000 0 -6725957.155 12629825.160 -21064561.639 10 0 59229 32400.00000 0 -7500054.917 10066344.683 -22159141.393 10 0 59229 33300.00000 0 -8499268.922 7466047.310 -22821350.901 10 0 59229 34200.00000 0 -9708801.243 4897231.137 -23038467.107 10 0 59229 35100.00000 0 -11101920.025 2424947.201 -22806486.771 10 0 59229 36000.00000 0 -12640966.169 108497.786 -22130187.169 10 0 59229 36900.00000 0 -14278836.965 -2000808.711 -21023012.414 10 0 59229 37800.00000 0 -15960883.006 -3861553.675 -19506789.206 10 0 59229 38700.00000 0 -17627137.465 -5443677.654 -17611279.153 10 0 59229 39600.00000 0 -19214783.019 -6729464.291 -15373578.000 10 0 59229 40500.00000 0 -20660752.204 -7714000.791 -12837374.916 10 0 59229 41400.00000 0 -21904351.857 -8405099.050 -10052087.491 10 0 59229 42300.00000 0 -22889801.717 -8822684.180 -7071890.341 10 0 59229 43200.00000 0 -23568581.497 -8997679.365 -3954656.946 10 0 59229 44100.00000 0 -23901489.110 -8970436.790 -760835.648 10 0 59229 45000.00000 0 -23860325.217 -8788782.793 2447718.172 10 0 59229 45900.00000 0 -23429135.137 -8505761.085 5608931.429 10 0 59229 46800.00000 0 -22604957.675 -8177169.769 8661701.783 10 0 59229 47700.00000 0 -21398050.914 -7858995.848 11547063.114 10 0 59229 48600.00000 0 -19831586.514 -7604854.611 14209306.817 10 0 59229 49500.00000 0 -17940825.692 -7463540.574 16597038.858 10 0 59229 50400.00000 0 -15771811.082 -7476791.631 18664153.820 10 0 59229 51300.00000 0 -13379628.066 -7677359.076 20370708.933 10 0 59229 52200.00000 0 -10826306.340 -8087463.538 21683682.922 10 0 59229 53100.00000 0 -8178446.916 -8717701.036 22577606.368 10 0 59229 54000.00000 0 -5504670.609 -9566445.199 23035052.492 10 0 59229 54900.00000 0 -2872991.227 -10619771.587 23046979.367 10 0 59229 55800.00000 0 -348220.010 -11851908.963 22612916.832 10 0 59229 56700.00000 0 2010493.321 -13226200.944 21740993.782 10 0 59229 57600.00000 0 4151882.529 -14696540.598 20447803.921 10 0 59229 58500.00000 0 6034458.562 -16209220.900 18758110.728 10 0 59229 59400.00000 0 7627996.610 -17705126.406 16704395.099 10 0 59229 60300.00000 0 8914554.280 -19122176.786 14326251.991 10 0 59229 61200.00000 0 9888977.464 -20397921.427 11669645.434 10 0 59229 62100.00000 0 10558871.587 -21472177.023 8786034.244 10 0 59229 63000.00000 0 10944038.130 -22289597.204 5731383.762 10 0 59229 63900.00000 0 11075398.911 -22802064.902 2565081.906 10 0 59229 64800.00000 0 10993452.693 -22970804.825 -651219.713 10 0 59229 65700.00000 0 10746329.060 -22768124.405 -3854816.559 10 0 59229 66600.00000 0 10387522.275 -22178706.948 -6983189.031 10 0 59229 67500.00000 0 9973402.256 -21200399.590 -9975241.573 10 0 59229 68400.00000 0 9560609.916 -19844460.263 -12772516.798 10 0 59229 69300.00000 0 9203449.496 -18135251.296 -15320358.601 10 0 59229 70200.00000 0 8951390.961 -16109391.317 -17568999.371 10 0 59229 71100.00000 0 8846790.743 -13814400.630 -19474548.222 10 0 59229 72000.00000 0 8922929.574 -11306897.323 -20999859.325 10 0 59229 72900.00000 0 9202452.173 -8650420.667 -22115262.504 10 0 59229 73800.00000 0 9696275.870 -5912974.185 -22799141.458 10 0 59229 74700.00000 0 10403014.653 -3164392.640 -23038348.460 10 0 59229 75600.00000 0 11308942.704 -473644.134 -22828448.203 10 0 59229 76500.00000 0 12388498.127 2093819.315 -22173787.101 10 0 59229 77400.00000 0 13605304.330 4478551.896 -21087388.112 10 0 59229 78300.00000 0 14913664.575 6629341.611 -19590674.715 10 0 59229 79200.00000 0 16260465.229 8505083.783 -17713031.020 10 0 59229 80100.00000 0 17587406.201 10076224.325 -15491208.199 10 0 59229 81000.00000 0 18833463.645 11325715.274 -12968590.284 10 0 59229 81900.00000 0 19937480.725 12249445.814 -10194334.827 10 0 59229 82800.00000 0 20840777.257 12856134.111 -7222406.286 10 0 59229 83700.00000 0 21489668.911 13166687.920 -4110521.653 10 0 59229 84600.00000 0 21837790.873 13213063.883 -919029.212 10 0 59229 85500.00000 0 21848129.522 13036676.006 2290257.609 10 0 59230 0.00000 0 21494678.306 12686422.197 5455248.910 10 0 59230 900.00000 0 20763649.365 12216413.148 8514767.537 10 0 59230 1800.00000 0 19654192.636 11683499.114 11409715.756 10 0 59230 2700.00000 0 18178591.400 11144699.059 14084199.408 10 0 59230 3600.00000 0 16361928.549 10654638.497 16486588.512 10 0 59230 4500.00000 0 14241236.140 10263103.057 18570495.795 10 0 59230 5400.00000 0 11864163.456 10012808.732 20295656.024 10 0 59230 6300.00000 0 9287217.352 9937481.141 21628690.877 10 0 59230 7200.00000 0 6573646.118 10060323.270 22543745.920 10 0 59230 8100.00000 0 3791052.169 10392935.425 23022988.515 10 0 59230 9000.00000 0 1008829.829 10934732.863 23056957.542 10 0 59230 9900.00000 0 -1704468.209 11672886.410 22644758.111 10 0 59230 10800.00000 0 -4283729.165 12582790.240 21794096.784 10 0 59230 11700.00000 0 -6669737.524 13629039.494 20521155.321 10 0 59230 12600.00000 0 -8811390.857 14766879.408 18850303.544 10 0 59230 13500.00000 0 -10667582.819 15944067.913 16813654.629 10 0 59230 14400.00000 0 -12208674.982 17103076.099 14450469.046 10 0 59230 15300.00000 0 -13417495.431 18183536.092 11806416.317 10 0 59230 16200.00000 0 -14289821.308 19124834.682 8932706.795 10 0 59230 17100.00000 0 -14834323.737 19868743.848 5885108.638 10 0 59230 18000.00000 0 -15071976.002 20361976.671 2722868.087 10 0 59230 18900.00000 0 -15034948.817 20558559.261 -492446.254 10 0 59230 19800.00000 0 -14765038.628 20421916.278 -3698152.250 10 0 59230 20700.00000 0 -14311695.290 19926579.142 -6831691.394 10 0 59230 21600.00000 0 -13729733.298 19059441.822 -9831868.522 10 0 59230 22500.00000 0 -13076824.781 17820508.266 -12640067.827 10 0 59230 23400.00000 0 -12410882.427 16223097.509 -15201419.102 10 0 59230 24300.00000 0 -11787445.411 14293495.945 -17465889.308 10 0 59230 25200.00000 0 -11257181.446 12070070.312 -19389276.207 10 0 59230 26100.00000 0 -10863612.899 9601878.349 -20934083.080 10 0 59230 27000.00000 0 -10641164.944 6946835.866 -22070256.508 10 0 59230 27900.00000 0 -10613619.502 4169517.804 -22775772.399 10 0 59230 28800.00000 0 -10793040.773 1338686.607 -23037058.956 10 0 59230 29700.00000 0 -11179217.493 -1475347.676 -22849249.020 10 0 59230 30600.00000 0 -11759644.601 -4203424.422 -22216257.972 10 0 59230 31500.00000 0 -12510043.658 -6780173.506 -21150687.038 10 0 59230 32400.00000 0 -13395398.346 -9146490.474 -19673555.495 10 0 59230 33300.00000 0 -14371459.545 -11251743.501 -17813868.583 10 0 59230 34200.00000 0 -15386654.732 -13055621.600 -15608031.187 10 0 59230 35100.00000 0 -16384319.719 -14529549.283 -13099120.168 10 0 59230 36000.00000 0 -17305157.567 -15657611.424 -10336030.785 10 0 59230 36900.00000 0 -18089820.416 -16436952.771 -7372514.901 10 0 59230 37800.00000 0 -18681505.399 -16877638.724 -4266130.454 10 0 59230 38700.00000 0 -19028455.733 -17001986.417 -1077123.003 10 0 59230 39600.00000 0 -19086262.561 -16843396.954 2132738.715 10 0 59230 40500.00000 0 -18819871.909 -16444740.132 5301350.924 10 0 59230 41400.00000 0 -18205213.699 -15856361.117 8367464.250 10 0 59230 42300.00000 0 -17230385.745 -15133793.599 11271852.313 10 0 59230 43200.00000 0 -15896344.095 -14335275.592 13958438.213 10 0 59230 44100.00000 0 -14217071.435 -13519171.569 16375358.698 10 0 59230 45000.00000 0 -12219216.586 -12741407.985 18475947.108 10 0 59230 45900.00000 0 -9941219.505 -12053028.271 20219617.938 10 0 59230 46800.00000 0 -7431956.910 -11497968.195 21572637.644 10 0 59230 47700.00000 0 -4748962.940 -11111143.374 22508768.213 10 0 59230 48600.00000 0 -1956296.302 -10916927.965 23009772.156 10 0 59230 49500.00000 0 877860.520 -10928087.740 23065769.753 10 0 59230 50400.00000 0 3683773.230 -11145212.429 22675441.562 10 0 59230 51300.00000 0 6392795.140 -11556672.064 21846071.626 10 0 59230 52200.00000 0 8939967.029 -12139100.748 20593429.225 10 0 59230 53100.00000 0 11266471.351 -12858389.731 18941489.639 10 0 59230 54000.00000 0 13321840.031 -13671150.552 16921997.132 10 0 59230 54900.00000 0 15065824.363 -14526589.208 14573876.142 10 0 59230 55800.00000 0 16469848.642 -15368714.677 11942499.793 10 0 59230 56700.00000 0 17517985.858 -16138790.351 9078827.729 10 0 59230 57600.00000 0 18207413.213 -16777925.776 6038428.323 10 0 59230 58500.00000 0 18548326.780 -17229699.173 2880403.249 10 0 59230 59400.00000 0 18563317.437 -17442698.841 -333765.021 10 0 59230 60300.00000 0 18286233.363 -17372874.048 -3541420.003 10 0 59230 61200.00000 0 17760576.503 -16985593.427 -6679967.566 10 0 59230 62100.00000 0 17037501.017 -16257320.833 -9688116.136 10 0 59230 63000.00000 0 16173499.214 -15176834.759 -12507094.531 10 0 59230 63900.00000 0 15227874.409 -13745937.014 -15081821.276 10 0 59230 64800.00000 0 14260109.676 -11979618.379 -17362000.452 10 0 59230 65700.00000 0 13327245.986 -9905672.611 -19303120.722 10 0 59230 66600.00000 0 12481382.850 -7563774.144 -20867336.380 10 0 59230 67500.00000 0 11767408.949 -5004058.046 -22024212.293 10 0 59230 68400.00000 0 11221059.964 -2285262.210 -22751317.710 10 0 59230 69300.00000 0 10867386.245 527489.481 -23034657.473 10 0 59230 70200.00000 0 10719694.857 3365169.262 -22868932.888 10 0 59230 71100.00000 0 10779009.788 6157488.232 -22257628.223 10 0 59230 72000.00000 0 11034071.572 8835588.611 -21212922.542 10 0 59230 72900.00000 0 11461874.431 11334673.047 -19755430.146 10 0 59230 73800.00000 0 12028716.065 13596461.742 -17913776.315 10 0 59230 74700.00000 0 12691713.622 15571375.918 -15724018.240 10 0 59230 75600.00000 0 13400719.872 17220358.331 -13228923.902 10 0 59230 76500.00000 0 14100557.078 18516257.207 -10477124.230 10 0 59230 77400.00000 0 14733473.192 19444718.514 -7522156.152 10 0 59230 78300.00000 0 15241716.094 20004552.391 -4421415.919 10 0 59230 79200.00000 0 15570117.342 20207561.470 -1235043.498 10 0 59230 80100.00000 0 15668576.947 20077841.213 1975240.101 10 0 59230 81000.00000 0 15494345.415 19650584.079 5147320.267 10 0 59230 81900.00000 0 15014008.126 18970439.611 8219878.639 10 0 59230 82800.00000 0 14205089.861 18089500.405 11133563.149 10 0 59230 83700.00000 0 13057213.173 17064998.903 13832117.019 10 0 59230 84600.00000 0 11572762.763 15956811.251 16263446.397 10 0 59230 85500.00000 0 9767028.317 14824871.924 18380607.680 10 0 59231 0.00000 0 7667819.507 13726605.964 20142697.257 10 0 59231 900.00000 0 5314567.638 12714484.815 21515628.345 10 0 59231 1800.00000 0 2756950.728 11833805.640 22472780.930 10 0 59231 2700.00000 0 53095.193 11120786.834 22995513.926 10 0 59231 3600.00000 0 -2732572.692 10601056.692 23073529.871 10 0 59231 4500.00000 0 -5531740.113 10288599.184 22705085.187 10 0 59231 5400.00000 0 -8274788.528 10185200.590 21897041.308 10 0 59231 6300.00000 0 -10893437.795 10280421.241 20664754.418 10 0 59231 7200.00000 0 -13323346.002 10552095.079 19031804.123 10 0 59231 8100.00000 0 -15506558.568 10967338.028 17029564.105 10 0 59231 9000.00000 0 -17393705.544 11484025.002 14696620.662 10 0 59231 9900.00000 0 -18945855.333 12052675.490 12078048.023 10 0 59231 10800.00000 0 -20135946.712 12618669.967 9224552.348 10 0 59231 11700.00000 0 -20949737.869 13124704.702 6191499.268 10 0 59231 12600.00000 0 -21386230.901 13513381.496 3037842.833 10 0 59231 13500.00000 0 -21457552.268 13729822.199 -175023.711 10 0 59231 14400.00000 0 -21188292.717 13724195.799 -3384472.607 10 0 59231 15300.00000 0 -20614333.467 13454048.834 -6527877.124 10 0 59231 16200.00000 0 -19781207.863 12886337.613 -9543852.225 10 0 59231 17100.00000 0 -18742068.057 11999073.171 -12373474.154 10 0 59231 18000.00000 0 -17555343.725 10782506.393 -14961452.782 10 0 59231 18900.00000 0 -16282193.431 9239800.530 -17257231.677 10 0 59231 19800.00000 0 -14983858.336 7387160.600 -19215992.443 10 0 59231 20700.00000 0 -13719032.144 5253412.823 -20799542.071 10 0 59231 21600.00000 0 -12541360.243 2879051.070 -21977065.000 10 0 59231 22500.00000 0 -11497175.006 314790.333 -22725724.704 10 0 59231 23400.00000 0 -10623563.624 -2380311.557 -23031103.149 10 0 59231 24300.00000 0 -9946849.927 -5141084.461 -22887470.191 10 0 59231 25200.00000 0 -9481553.465 -7898734.509 -22297878.699 10 0 59231 26100.00000 0 -9229868.224 -10583485.819 -21274084.904 10 0 59231 27000.00000 0 -9181680.888 -13127264.599 -19836297.129 10 0 59231 27900.00000 0 -9315125.448 -15466313.634 -18012759.370 10 0 59231 28800.00000 0 -9597648.167 -17543628.567 -15839179.523 10 0 59231 29700.00000 0 -9987535.481 -19311115.581 -13358014.868 10 0 59231 30600.00000 0 -10435838.136 -20731382.247 -10617630.006 10 0 59231 31500.00000 0 -10888608.609 -21779089.023 -7671344.806 10 0 59231 32400.00000 0 -11289356.168 -22441807.642 -4576391.628 10 0 59231 33300.00000 0 -11581615.359 -22720353.402 -1392802.569 10 0 59231 34200.00000 0 -11711519.589 -22628580.187 1817751.431 10 0 59231 35100.00000 0 -11630271.776 -22192649.448 4993147.356 10 0 59231 36000.00000 0 -11296408.870 -21449805.806 8072000.348 10 0 59231 36900.00000 0 -10677766.046 -20446712.071 10994835.230 10 0 59231 37800.00000 0 -9753059.086 -19237414.170 13705217.937 10 0 59231 38700.00000 0 -8513019.393 -17881021.173 16150826.593 10 0 59231 39600.00000 0 -6961034.568 -16439196.855 18284443.138 10 0 59231 40500.00000 0 -5113267.630 -14973566.391 20064848.213 10 0 59231 41400.00000 0 -2998249.040 -13543144.892 21457603.734 10 0 59231 42300.00000 0 -655957.114 -12201893.340 22435709.492 10 0 59231 43200.00000 0 1863577.155 -10996502.142 22980122.223 10 0 59231 44100.00000 0 4502085.605 -9964493.298 23080127.756 10 0 59231 45000.00000 0 7195226.331 -9132719.366 22733559.020 10 0 59231 45900.00000 0 9875008.466 -8516321.502 21946855.125 10 0 59231 46800.00000 0 12472380.663 -8118190.359 20734959.072 10 0 59231 47700.00000 0 14919878.306 -7928953.322 19121054.333 10 0 59231 48600.00000 0 17154221.404 -7927490.065 17136143.198 10 0 59231 49500.00000 0 19118756.201 -8081956.554 14818472.622 10 0 59231 50400.00000 0 20765638.935 -8351276.342 12212816.353 10 0 59231 51300.00000 0 22057670.038 -8687038.029 9369625.059 10 0 59231 52200.00000 0 22969700.787 -9035720.078 6344059.214 10 0 59231 53100.00000 0 23489551.641 -9341149.551 3194922.448 10 0 59231 54000.00000 0 23618401.770 -9547090.490 -16484.324 10 0 59231 54900.00000 0 23370631.526 -9599851.217 -3227565.401 10 0 59231 55800.00000 0 22773122.929 -9450798.177 -6375664.871 10 0 59231 56700.00000 0 21864046.759 -9058667.245 -9399307.628 10 0 59231 57600.00000 0 20691187.220 -8391571.607 -12239420.596 10 0 59231 58500.00000 0 19309875.392 -7428618.160 -14840508.021 10 0 59231 59400.00000 0 17780619.954 -6161061.160 -17151755.692 10 0 59231 60300.00000 0 16166536.825 -4592941.888 -19128040.579 10 0 59231 61200.00000 0 14530688.132 -2741185.535 -20730824.458 10 0 59231 62100.00000 0 12933444.601 -635150.070 -21928913.079 10 0 59231 63000.00000 0 11429984.082 1684354.429 -22699065.520 10 0 59231 63900.00000 0 10068032.617 4166534.522 -23026441.880 10 0 59231 64800.00000 0 8885943.424 6752508.078 -22904881.192 10 0 59231 65700.00000 0 7911194.081 9377544.626 -22337005.167 10 0 59231 66600.00000 0 7159363.888 11973556.687 -21334147.085 10 0 59231 67500.00000 0 6633632.368 14471737.252 -19916108.785 10 0 59231 68400.00000 0 6324817.459 16805232.839 -18110752.123 10 0 59231 69300.00000 0 6211948.959 18911740.588 -15953434.485 10 0 59231 70200.00000 0 6263350.116 20735921.616 -13486300.869 10 0 59231 71100.00000 0 6438178.989 22231531.193 -10757447.630 10 0 59231 72000.00000 0 6688362.250 23363178.459 -7819975.310 10 0 59231 72900.00000 0 6960837.941 24107644.453 -4730949.794 10 0 59231 73800.00000 0 7200011.349 24454705.861 -1550292.455 10 0 59231 74700.00000 0 7350319.840 24407432.610 1660378.894 10 0 59231 75600.00000 0 7358798.481 23981949.383 4838936.003 10 0 59231 76500.00000 0 7177538.886 23206673.141 7923930.734 10 0 59231 77400.00000 0 6765938.627 22121060.240 10855767.942 10 0 59231 78300.00000 0 6092647.636 20773916.523 13577839.329 10 0 59231 79200.00000 0 5137130.793 19221341.303 16037597.862 10 0 59231 80100.00000 0 3890781.863 17524390.748 18187553.687 10 0 59231 81000.00000 0 2357542.326 15746557.100 19986174.091 10 0 59231 81900.00000 0 553998.751 13951167.301 21398671.906 10 0 59231 82800.00000 0 -1491046.433 12198807.618 22397668.543 10 0 59231 83700.00000 0 -3737514.785 10544879.548 22963720.042 10 0 59231 84600.00000 0 -6135465.710 9037386.964 23085696.603 10 0 59231 85500.00000 0 -8626928.423 7715045.239 22761008.293 10 0 59232 0.00000 0 -11148079.092 6605790.115 21995672.022 10 0 59232 900.00000 0 -13631676.016 5725748.380 20804217.104 10 0 59232 1800.00000 0 -16009654.127 5078712.999 19209429.895 10 0 59232 2700.00000 0 -18215773.393 4656146.843 17241939.698 10 0 59232 3600.00000 0 -20188212.553 4437714.674 14939652.026 10 0 59232 4500.00000 0 -21872000.276 4392323.820 12347037.589 10 0 59232 5400.00000 0 -23221182.198 4479630.791 9514288.666 10 0 59232 6300.00000 0 -24200632.038 4651951.790 6496357.431 10 0 59232 7200.00000 0 -24787429.100 4856497.223 3351893.808 10 0 59232 8100.00000 0 -24971742.263 5037835.755 142103.045 10 0 59232 9000.00000 0 -24757181.069 5140482.871 -3070454.530 10 0 59232 9900.00000 0 -24160597.111 5111502.706 -6223097.074 10 0 59232 10800.00000 0 -23211342.614 4903010.600 -9254262.546 10 0 59232 11700.00000 0 -21950016.575 4474467.557 -12104731.536 10 0 59232 12600.00000 0 -20426751.313 3794666.380 -14718805.441 10 0 59232 13500.00000 0 -18699112.322 2843322.439 -17045414.781 10 0 59232 14400.00000 0 -16829701.249 1612199.086 -19039134.039 10 0 59232 15300.00000 0 -14883564.699 105718.075 -20661081.510 10 0 59232 16200.00000 0 -12925519.791 -1658972.299 -21879685.510 10 0 59232 17100.00000 0 -11017510.605 -3652475.018 -22671301.472 10 0 59232 18000.00000 0 -9216107.973 -5834148.110 -23020667.878 10 0 59232 18900.00000 0 -7570258.230 -8153591.823 -22921192.716 10 0 59232 19800.00000 0 -6119375.243 -10552556.067 -22375065.882 10 0 59232 20700.00000 0 -4891854.917 -12967187.163 -21393196.652 10 0 59232 21600.00000 0 -3904072.659 -15330518.965 -19994979.019 10 0 59232 22500.00000 0 -3159903.451 -17575103.485 -18207891.056 10 0 59232 23400.00000 0 -2650781.794 -19635670.620 -16066937.790 10 0 59232 24300.00000 0 -2356295.770 -21451706.052 -13613949.942 10 0 59232 25200.00000 0 -2245287.064 -22969840.281 -10896753.522 10 0 59232 26100.00000 0 -2277407.718 -24145950.178 -7968227.600 10 0 59232 27000.00000 0 -2405065.541 -24946886.931 -4885269.425 10 0 59232 27900.00000 0 -2575674.271 -25351760.263 -1707687.487 10 0 59232 28800.00000 0 -2734112.477 -25352727.449 1502955.692 10 0 59232 29700.00000 0 -2825286.967 -24955256.452 4684528.800 10 0 59232 30600.00000 0 -2796692.805 -24177854.246 7775522.616 10 0 59232 31500.00000 0 -2600862.730 -23051273.393 10716224.263 10 0 59232 32400.00000 0 -2197603.804 -21617231.161 13449853.444 10 0 59232 33300.00000 0 -1555928.315 -19926695.164 15923640.198 10 0 59232 34200.00000 0 -655598.753 -18037806.854 18089825.025 10 0 59232 35100.00000 0 511777.343 -16013528.541 19906563.889 10 0 59232 36000.00000 0 1942148.545 -13919110.456 21338722.362 10 0 59232 36900.00000 0 3618942.384 -11819481.431 22358545.060 10 0 59232 37800.00000 0 5513514.529 -9776669.602 22946188.617 10 0 59232 38700.00000 0 7586107.747 -7847358.259 23090108.581 10 0 59232 39600.00000 0 9787283.326 -6080676.668 22787292.803 10 0 59232 40500.00000 0 12059768.506 -4516316.298 22043336.265 10 0 59232 41400.00000 0 14340646.256 -3183049.972 20872354.705 10 0 59232 42300.00000 0 16563799.243 -2097715.537 19296736.973 10 0 59232 43200.00000 0 18662508.844 -1264706.811 17346738.764 10 0 59232 44100.00000 0 20572102.779 -675994.056 15059923.177 10 0 59232 45000.00000 0 22232541.865 -311674.463 12480456.564 10 0 59232 45900.00000 0 23590837.924 -141030.921 9658271.127 10 0 59232 46800.00000 0 24603200.799 -124055.831 6648108.670 10 0 59232 47700.00000 0 25236822.866 -213376.634 3508462.987 10 0 59232 48600.00000 0 25471223.950 -356502.065 300440.907 10 0 59232 49500.00000 0 25299097.700 -498293.655 -2913435.616 10 0 59232 50400.00000 0 24726621.379 -583556.696 -6070461.960 10 0 59232 51300.00000 0 23773214.001 -559638.910 -9108992.338 10 0 59232 52200.00000 0 22470751.509 -378924.208 -11969664.120 10 0 59232 53100.00000 0 20862271.362 -1112.978 -14596578.790 10 0 59232 54000.00000 0 19000221.165 604810.616 -16938414.302 10 0 59232 54900.00000 0 16944325.803 1459010.388 -18949445.097 10 0 59232 55800.00000 0 14759164.264 2569697.569 -20590448.143 10 0 59232 56700.00000 0 12511559.589 3932546.189 -21829476.209 10 0 59232 57600.00000 0 10267893.283 5530650.161 -22642482.688 10 0 59232 58500.00000 0 8091458.367 7335024.214 -23013785.752 10 0 59232 59400.00000 0 6039962.959 9305627.405 -22936363.334 10 0 59232 60300.00000 0 4163289.201 11392865.533 -22411974.156 10 0 59232 61200.00000 0 2501600.893 13539508.351 -21451103.769 10 0 59232 62100.00000 0 1083877.649 15682940.124 -20072738.190 10 0 59232 63000.00000 0 -73065.254 17757648.312 -18303971.183 10 0 59232 63900.00000 0 -965032.961 19697845.354 -16179454.484 10 0 59232 64800.00000 0 -1600367.247 21440113.617 -13740703.204 10 0 59232 65700.00000 0 -1999329.733 22925962.972 -11035271.286 10 0 59232 66600.00000 0 -2192981.317 24104194.714 -8115814.249 10 0 59232 67500.00000 0 -2221607.968 24932974.119 -5039058.293 10 0 59232 68400.00000 0 -2132761.607 25381526.585 -1864696.331 10 0 59232 69300.00000 0 -1979000.375 25431388.254 1345767.324 10 0 59232 70200.00000 0 -1815424.585 25077160.852 4530201.376 10 0 59232 71100.00000 0 -1697112.519 24326741.092 7627038.675 10 0 59232 72000.00000 0 -1676563.821 23201016.720 10576451.784 10 0 59232 72900.00000 0 -1801257.313 21733043.097 13321491.527 10 0 59232 73800.00000 0 -2111424.971 19966735.281 15809168.028 10 0 59232 74700.00000 0 -2638134.450 17955130.115 17991455.009 10 0 59232 75600.00000 0 -3401759.792 15758289.953 19826199.779 10 0 59232 76500.00000 0 -4410903.954 13440933.854 21277923.103 10 0 59232 77400.00000 0 -5661818.369 11069892.925 22318494.968 10 0 59232 78300.00000 0 -7138344.699 8711493.270 22927674.448 10 0 59232 79200.00000 0 -8812382.851 6428972.937 23093503.896 10 0 59232 80100.00000 0 -10644867.939 4280037.968 22812549.942 10 0 59232 81000.00000 0 -12587218.317 2314657.204 22089986.148 10 0 59232 81900.00000 0 -14583197.421 573186.121 20939514.536 10 0 59232 82800.00000 0 -16571114.835 -915102.845 19383125.798 10 0 59232 83700.00000 0 -18486277.648 -2133022.374 17450700.724 10 0 59232 84600.00000 0 -20263592.019 -3075962.341 15179458.126 10 0 59232 85500.00000 0 -21840207.650 -3751850.245 12613257.614 99